Location: Austin
(30.3000°N, 97.7500°W)
Time: 11:00:54
(UTC-05:00)

Cosmos 2360 Rocket - Pass Details

Date: 03 April 2024
Orbit: 833 x 845 km, 71.0° (Epoch: 21 April)

Event Time Altitude Azimuth Distance (km) Brightness Sun altitude
Exits shadow 04:47:35 36° 355° (N) 1,301 3.3 -31.5°
Drops below altitude 10° 04:50:57 10° 11° (NNE) 2,448 5.0 -30.8°
Sets 04:53:26 0° 15° (NNE) 3,386 5.9 -30.4°
